Time,TemperatureF,DewpointF,PressureIn,WindDirection,WindDirectionDegrees,WindSpeedMPH,WindSpeedGustMPH,Humidity,HourlyPrecipIn,Conditions,Clouds,dailyrainin,SoftwareType,DateUTC
2013-10-20 07:40:00,39.0,35.5,29.93,NNE,22,1.0,1.0,87,0.00,,,0.00,Weather View 32 v70,2013-10-20 15:40:00,
2013-10-20 07:41:00,38.8,35.0,29.93,NE,45,1.0,1.0,86,0.00,,,0.00,Weather View 32 v70,2013-10-20 15:41:00,
2013-10-20 07:46:00,39.0,35.2,29.92,NNE,22,1.0,1.0,86,0.00,,,0.00,Weather View 32 v70,2013-10-20 15:46:00,
2013-10-20 07:51:00,39.2,35.4,29.92,SE,135,0.0,1.0,86,0.00,,,0.00,Weather View 32 v70,2013-10-20 15:51:00,
2013-10-20 07:56:00,39.4,35.2,29.92,North,0,0.0,1.0,85,0.00,,,0.00,Weather View 32 v70,2013-10-20 15:56:00,
2013-10-20 08:01:00,40.1,35.7,29.92,SSE,158,1.0,1.0,84,0.00,,,0.00,Weather View 32 v70,2013-10-20 16:01:00,
2013-10-20 08:06:00,39.9,35.5,29.94,SSE,158,0.0,1.0,84,0.00,,,0.00,Weather View 32 v70,2013-10-20 16:06:00,
2013-10-20 08:11:00,40.3,35.5,29.94,ESE,112,1.0,1.0,83,0.00,,,0.00,Weather View 32 v70,2013-10-20 16:11:00,
2013-10-20 08:16:00,40.5,35.4,29.94,ESE,112,1.0,1.0,82,0.00,,,0.00,Weather View 32 v70,2013-10-20 16:16:00,
2013-10-20 08:21:00,40.6,35.3,29.94,NNE,22,1.0,1.0,81,0.00,,,0.00,Weather View 32 v70,2013-10-20 16:21:00,
2013-10-20 08:26:00,40.6,35.3,29.94,NE,45,1.0,1.0,81,0.00,,,0.00,Weather View 32 v70,2013-10-20 16:26:00,
2013-10-20 08:31:00,40.8,35.1,29.94,NNE,22,0.0,1.0,80,0.00,,,0.00,Weather View 32 v70,2013-10-20 16:31:00,
2013-10-20 08:36:00,40.8,35.1,29.94,ESE,112,0.0,1.0,80,0.00,,,0.00,Weather View 32 v70,2013-10-20 16:36:00,
2013-10-20 08:41:00,41.2,35.5,29.94,NNE,22,0.0,1.0,80,0.00,,,0.00,Weather View 32 v70,2013-10-20 16:41:00,
2013-10-20 08:46:00,41.2,35.5,29.94,NE,45,1.0,1.0,80,0.00,,,0.00,Weather View 32 v70,2013-10-20 16:46:00,
2013-10-20 08:51:00,41.2,35.2,29.94,NE,45,1.0,1.0,79,0.00,,,0.00,Weather View 32 v70,2013-10-20 16:51:00,
2013-10-20 08:56:00,41.2,35.2,29.94,SE,135,1.0,1.0,79,0.00,,,0.00,Weather View 32 v70,2013-10-20 16:56:00,
2013-10-20 09:01:00,41.2,35.2,29.94,South,180,1.0,1.0,79,0.00,,,0.00,Weather View 32 v70,2013-10-20 17:01:00,
2013-10-20 09:06:00,40.8,35.1,29.95,ENE,68,1.0,1.0,80,0.00,,,0.00,Weather View 32 v70,2013-10-20 17:06:00,
2013-10-20 09:11:00,40.8,35.1,29.95,NNE,22,1.0,1.0,80,0.00,,,0.00,Weather View 32 v70,2013-10-20 17:11:00,
2013-10-20 09:16:00,41.0,35.3,29.95,NNE,22,1.0,1.0,80,0.00,,,0.00,Weather View 32 v70,2013-10-20 17:16:00,
2013-10-20 09:21:00,40.8,35.1,29.95,NNE,22,1.0,1.0,80,0.00,,,0.00,Weather View 32 v70,2013-10-20 17:21:00,
2013-10-20 09:26:00,40.6,35.3,29.99,SSE,158,0.0,1.0,81,0.00,,,0.00,Weather View 32 v70,2013-10-20 17:26:00,
2013-10-20 09:31:00,40.5,35.1,29.99,WSW,248,0.0,1.0,81,0.00,,,0.00,Weather View 32 v70,2013-10-20 17:31:00,
2013-10-20 09:36:00,40.8,35.4,29.99,West,270,0.0,1.0,81,0.00,,,0.00,Weather View 32 v70,2013-10-20 17:36:00,
2013-10-20 09:41:00,40.8,35.4,29.99,NE,45,0.0,1.0,81,0.00,,,0.00,Weather View 32 v70,2013-10-20 17:41:00,
2013-10-20 09:46:00,40.6,35.6,29.99,ESE,112,0.0,1.0,82,0.00,,,0.00,Weather View 32 v70,2013-10-20 17:46:00,
2013-10-20 09:51:00,40.5,35.4,29.99,ESE,112,0.0,1.0,82,0.00,,,0.00,Weather View 32 v70,2013-10-20 17:51:00,
2013-10-20 09:56:00,40.1,35.3,29.99,SE,135,0.0,1.0,83,0.00,,,0.00,Weather View 32 v70,2013-10-20 17:56:00,
2013-10-20 10:01:00,40.1,35.3,29.99,ESE,112,0.0,1.0,83,0.00,,,0.00,Weather View 32 v70,2013-10-20 18:01:00,
2013-10-20 10:06:00,39.9,35.2,29.99,NE,45,0.0,1.0,83,0.00,,,0.00,Weather View 32 v70,2013-10-20 18:06:00,
2013-10-20 10:11:00,39.9,35.2,29.99,NE,45,0.0,1.0,83,0.00,,,0.00,Weather View 32 v70,2013-10-20 18:11:00,
2013-10-20 10:16:00,39.9,35.2,29.99,NE,45,1.0,1.0,83,0.00,,,0.00,Weather View 32 v70,2013-10-20 18:16:00,
2013-10-20 10:21:00,40.1,35.3,29.99,NE,45,1.0,1.0,83,0.00,,,0.00,Weather View 32 v70,2013-10-20 18:21:00,
2013-10-20 10:26:00,40.5,35.7,29.99,NNE,22,1.0,1.0,83,0.00,,,0.00,Weather View 32 v70,2013-10-20 18:26:00,
2013-10-20 10:31:00,40.8,36.1,29.99,NE,45,1.0,1.0,83,0.00,,,0.00,Weather View 32 v70,2013-10-20 18:31:00,
2013-10-20 10:36:00,41.7,36.6,29.99,NNE,22,1.0,1.0,82,0.00,,,0.00,Weather View 32 v70,2013-10-20 18:36:00,
2013-10-20 10:41:00,42.1,37.0,29.99,North,0,1.0,1.0,82,0.00,,,0.00,Weather View 32 v70,2013-10-20 18:41:00,
2013-10-20 10:46:00,42.3,36.8,29.99,NW,315,0.0,1.0,81,0.00,,,0.00,Weather View 32 v70,2013-10-20 18:46:00,
2013-10-20 10:51:00,42.6,37.2,29.99,WNW,292,0.0,1.0,81,0.00,,,0.00,Weather View 32 v70,2013-10-20 18:51:00,
2013-10-20 10:56:00,42.6,37.2,29.99,WNW,292,0.0,1.0,81,0.00,,,0.00,Weather View 32 v70,2013-10-20 18:56:00,
2013-10-20 11:01:00,42.6,37.2,29.99,WNW,292,0.0,1.0,81,0.00,,,0.00,Weather View 32 v70,2013-10-20 19:01:00,
2013-10-20 11:06:00,42.8,37.4,30.00,South,180,0.0,1.0,81,0.00,,,0.00,Weather View 32 v70,2013-10-20 19:06:00,
2013-10-20 11:11:00,43.3,37.9,30.00,South,180,0.0,1.0,81,0.00,,,0.00,Weather View 32 v70,2013-10-20 19:11:00,
2013-10-20 11:16:00,44.1,38.3,30.00,West,270,0.0,1.0,80,0.00,,,0.00,Weather View 32 v70,2013-10-20 19:16:00,
2013-10-20 11:21:00,44.4,38.3,30.00,West,270,0.0,1.0,79,0.00,,,0.00,Weather View 32 v70,2013-10-20 19:21:00,
2013-10-20 11:26:00,44.2,37.8,30.00,East,90,0.0,1.0,78,0.00,,,0.00,Weather View 32 v70,2013-10-20 19:26:00,
2013-10-20 11:31:00,44.4,37.7,30.00,SSE,158,0.0,1.0,77,0.00,,,0.00,Weather View 32 v70,2013-10-20 19:31:00,
2013-10-20 11:36:00,44.8,37.3,30.00,SE,135,1.0,1.0,75,0.00,,,0.00,Weather View 32 v70,2013-10-20 19:36:00,
2013-10-20 11:41:00,45.0,37.5,30.00,ESE,112,1.0,1.0,75,0.00,,,0.00,Weather View 32 v70,2013-10-20 19:41:00,
2013-10-20 11:46:00,45.0,37.5,30.01,SE,135,1.0,1.0,75,0.00,,,0.00,Weather View 32 v70,2013-10-20 19:46:00,
2013-10-20 11:51:00,45.5,37.7,30.01,East,90,0.0,1.0,74,0.00,,,0.00,Weather View 32 v70,2013-10-20 19:51:00,
2013-10-20 11:56:00,45.5,37.3,30.01,South,180,0.0,1.0,73,0.00,,,0.00,Weather View 32 v70,2013-10-20 19:56:00,
2013-10-20 12:01:00,45.9,37.3,30.01,SSE,158,0.0,1.0,72,0.00,,,0.00,Weather View 32 v70,2013-10-20 20:01:00,
2013-10-20 12:06:00,45.7,37.2,30.01,SSW,202,0.0,1.0,72,0.00,,,0.00,Weather View 32 v70,2013-10-20 20:06:00,
2013-10-20 12:11:00,45.7,37.2,30.01,SSW,202,0.0,1.0,72,0.00,,,0.00,Weather View 32 v70,2013-10-20 20:11:00,
2013-10-20 12:16:00,47.8,38.1,30.01,ESE,112,1.0,1.0,69,0.00,,,0.00,Weather View 32 v70,2013-10-20 20:16:00,
2013-10-20 12:21:00,48.4,38.3,30.01,ESE,112,1.0,1.0,68,0.00,,,0.00,Weather View 32 v70,2013-10-20 20:21:00,
2013-10-20 12:26:00,48.4,37.9,30.01,SE,135,1.0,1.0,67,0.00,,,0.00,Weather View 32 v70,2013-10-20 20:26:00,
2013-10-20 12:31:00,48.6,38.1,30.01,NNE,22,1.0,1.0,67,0.00,,,0.00,Weather View 32 v70,2013-10-20 20:31:00,
2013-10-20 12:36:00,48.4,37.9,30.01,SE,135,1.0,1.0,67,0.00,,,0.00,Weather View 32 v70,2013-10-20 20:36:00,
2013-10-20 12:41:00,48.6,37.7,30.01,ESE,112,1.0,1.0,66,0.00,,,0.00,Weather View 32 v70,2013-10-20 20:41:00,
2013-10-20 12:46:00,49.3,38.0,30.03,NNE,22,1.0,1.0,65,0.00,,,0.00,Weather View 32 v70,2013-10-20 20:46:00,
2013-10-20 12:51:00,51.3,38.7,30.03,East,90,1.0,1.0,62,0.00,,,0.00,Weather View 32 v70,2013-10-20 20:51:00,
2013-10-20 12:56:00,51.3,37.8,30.03,ESE,112,2.0,2.0,60,0.00,,,0.00,Weather View 32 v70,2013-10-20 20:56:00,
2013-10-20 13:01:00,50.5,37.6,30.03,East,90,2.0,2.0,61,0.00,,,0.00,Weather View 32 v70,2013-10-20 21:01:00,
2013-10-20 13:06:00,49.8,37.3,30.03,NNW,338,2.0,2.0,62,0.00,,,0.00,Weather View 32 v70,2013-10-20 21:06:00,
2013-10-20 13:11:00,49.6,37.5,30.03,NE,45,1.0,2.0,63,0.00,,,0.00,Weather View 32 v70,2013-10-20 21:11:00,
2013-10-20 13:16:00,51.6,39.0,30.03,East,90,1.0,2.0,62,0.00,,,0.00,Weather View 32 v70,2013-10-20 21:16:00,
2013-10-20 13:21:00,51.1,38.1,30.03,NNE,22,1.0,2.0,61,0.00,,,0.00,Weather View 32 v70,2013-10-20 21:21:00,
2013-10-20 13:26:00,51.3,38.2,30.03,ENE,68,2.0,2.0,61,0.00,,,0.00,Weather View 32 v70,2013-10-20 21:26:00,
2013-10-20 13:31:00,55.2,40.7,30.03,NNE,22,2.0,2.0,58,0.00,,,0.00,Weather View 32 v70,2013-10-20 21:31:00,
2013-10-20 13:36:00,61.7,42.3,30.03,NW,315,1.0,2.0,49,0.00,,,0.00,Weather View 32 v70,2013-10-20 21:36:00,
2013-10-20 13:41:00,63.7,41.9,30.03,South,180,1.0,2.0,45,0.00,,,0.00,Weather View 32 v70,2013-10-20 21:41:00,
2013-10-20 13:46:00,64.2,40.6,30.02,ESE,112,2.0,2.0,42,0.00,,,0.00,Weather View 32 v70,2013-10-20 21:46:00,
2013-10-20 13:51:00,59.0,37.6,30.02,ESE,112,2.0,2.0,45,0.00,,,0.00,Weather View 32 v70,2013-10-20 21:51:00,
2013-10-20 13:56:00,55.8,36.8,30.02,SE,135,1.0,2.0,49,0.00,,,0.00,Weather View 32 v70,2013-10-20 21:56:00,
2013-10-20 14:01:00,53.8,36.0,30.02,NNE,22,1.0,2.0,51,0.00,,,0.00,Weather View 32 v70,2013-10-20 22:01:00,
2013-10-20 14:06:00,52.7,36.0,30.05,ESE,112,1.0,2.0,53,0.00,,,0.00,Weather View 32 v70,2013-10-20 22:06:00,
2013-10-20 14:11:00,52.2,36.5,30.05,ESE,112,0.0,2.0,55,0.00,,,0.00,Weather View 32 v70,2013-10-20 22:11:00,
2013-10-20 14:16:00,52.0,36.7,30.05,SE,135,0.0,2.0,56,0.00,,,0.00,Weather View 32 v70,2013-10-20 22:16:00,
2013-10-20 14:21:00,51.4,36.7,30.05,SE,135,1.0,2.0,57,0.00,,,0.00,Weather View 32 v70,2013-10-20 22:21:00,
2013-10-20 14:26:00,51.3,36.5,30.05,ESE,112,0.0,2.0,57,0.00,,,0.00,Weather View 32 v70,2013-10-20 22:26:00,
2013-10-20 14:31:00,51.1,36.8,30.05,ESE,112,1.0,2.0,58,0.00,,,0.00,Weather View 32 v70,2013-10-20 22:31:00,
2013-10-20 14:36:00,51.1,36.3,30.05,SSE,158,1.0,2.0,57,0.00,,,0.00,Weather View 32 v70,2013-10-20 22:36:00,
2013-10-20 14:41:00,51.3,36.5,30.05,SE,135,2.0,2.0,57,0.00,,,0.00,Weather View 32 v70,2013-10-20 22:41:00,
2013-10-20 14:46:00,50.9,36.6,30.06,ENE,68,2.0,2.0,58,0.00,,,0.00,Weather View 32 v70,2013-10-20 22:46:00,
2013-10-20 14:51:00,50.5,36.7,30.06,ENE,68,2.0,2.0,59,0.00,,,0.00,Weather View 32 v70,2013-10-20 22:51:00,
2013-10-20 14:56:00,50.2,36.8,30.06,ESE,112,2.0,2.0,60,0.00,,,0.00,Weather View 32 v70,2013-10-20 22:56:00,
2013-10-20 15:01:00,49.8,36.0,30.06,ENE,68,2.0,2.0,59,0.00,,,0.00,Weather View 32 v70,2013-10-20 23:01:00,
2013-10-20 15:06:00,49.8,36.5,30.06,NE,45,3.0,3.0,60,0.00,,,0.00,Weather View 32 v70,2013-10-20 23:06:00,
2013-10-20 15:11:00,49.3,36.0,30.06,NNE,22,2.0,3.0,60,0.00,,,0.00,Weather View 32 v70,2013-10-20 23:11:00,
2013-10-20 15:16:00,49.3,36.0,30.06,SE,135,2.0,3.0,60,0.00,,,0.00,Weather View 32 v70,2013-10-20 23:16:00,
2013-10-20 15:21:00,49.1,36.2,30.06,ENE,68,3.0,3.0,61,0.00,,,0.00,Weather View 32 v70,2013-10-20 23:21:00,
2013-10-20 15:26:00,49.1,37.0,30.07,ENE,68,2.0,3.0,63,0.00,,,0.00,Weather View 32 v70,2013-10-20 23:26:00,
2013-10-20 15:31:00,48.7,36.7,30.07,ENE,68,2.0,3.0,63,0.00,,,0.00,Weather View 32 v70,2013-10-20 23:31:00,
2013-10-20 15:36:00,48.7,36.7,30.07,East,90,2.0,3.0,63,0.00,,,0.00,Weather View 32 v70,2013-10-20 23:36:00,
2013-10-20 15:41:00,48.6,36.5,30.07,NNE,22,2.0,3.0,63,0.00,,,0.00,Weather View 32 v70,2013-10-20 23:41:00,
2013-10-20 15:46:00,48.6,36.9,30.06,SE,135,2.0,3.0,64,0.00,,,0.00,Weather View 32 v70,2013-10-20 23:46:00,
2013-10-20 15:51:00,48.2,36.6,30.06,NNE,22,1.0,3.0,64,0.00,,,0.00,Weather View 32 v70,2013-10-20 23:51:00,
2013-10-20 15:56:00,48.2,36.6,30.06,SE,135,1.0,3.0,64,0.00,,,0.00,Weather View 32 v70,2013-10-20 23:56:00,
2013-10-20 16:01:00,48.4,36.7,30.06,ESE,112,1.0,3.0,64,0.00,,,0.00,Weather View 32 v70,2013-10-21 00:01:00,
2013-10-20 16:06:00,48.4,36.7,30.05,SE,135,1.0,3.0,64,0.00,,,0.00,Weather View 32 v70,2013-10-21 00:06:00,
2013-10-20 16:11:00,48.4,36.7,30.05,NE,45,1.0,3.0,64,0.00,,,0.00,Weather View 32 v70,2013-10-21 00:11:00,
2013-10-20 16:16:00,48.4,37.1,30.05,East,90,1.0,3.0,65,0.00,,,0.00,Weather View 32 v70,2013-10-21 00:16:00,
2013-10-20 16:21:00,48.0,36.4,30.05,SE,135,1.0,3.0,64,0.00,,,0.00,Weather View 32 v70,2013-10-21 00:21:00,
2013-10-20 16:26:00,48.0,36.4,30.05,ENE,68,2.0,2.0,64,0.00,,,0.00,Weather View 32 v70,2013-10-21 00:26:00,
2013-10-20 16:31:00,47.8,36.2,30.05,NE,45,2.0,2.0,64,0.00,,,0.00,Weather View 32 v70,2013-10-21 00:31:00,
2013-10-20 16:36:00,48.0,36.4,30.05,SE,135,2.0,2.0,64,0.00,,,0.00,Weather View 32 v70,2013-10-21 00:36:00,
2013-10-20 16:41:00,47.8,36.2,30.05,ESE,112,2.0,2.0,64,0.00,,,0.00,Weather View 32 v70,2013-10-21 00:41:00,
2013-10-20 16:46:00,47.8,36.6,30.05,SE,135,2.0,2.0,65,0.00,,,0.00,Weather View 32 v70,2013-10-21 00:46:00,
2013-10-20 16:51:00,47.7,36.8,30.05,NE,45,1.0,2.0,66,0.00,,,0.00,Weather View 32 v70,2013-10-21 00:51:00,
2013-10-20 16:56:00,47.7,36.8,30.05,SE,135,1.0,2.0,66,0.00,,,0.00,Weather View 32 v70,2013-10-21 00:56:00,
2013-10-20 17:01:00,47.1,36.7,30.05,WSW,248,0.0,2.0,67,0.00,,,0.00,Weather View 32 v70,2013-10-21 01:01:00,
2013-10-20 17:06:00,47.1,37.1,30.05,ESE,112,0.0,2.0,68,0.00,,,0.00,Weather View 32 v70,2013-10-21 01:06:00,
2013-10-20 17:11:00,46.9,37.3,30.05,WSW,248,0.0,2.0,69,0.00,,,0.00,Weather View 32 v70,2013-10-21 01:11:00,
2013-10-20 17:16:00,46.9,37.3,30.05,SW,225,1.0,2.0,69,0.00,,,0.00,Weather View 32 v70,2013-10-21 01:16:00,
2013-10-20 17:21:00,46.6,38.0,30.05,NNW,338,1.0,2.0,72,0.00,,,0.00,Weather View 32 v70,2013-10-21 01:21:00,
2013-10-20 17:26:00,46.2,37.7,30.05,WNW,292,0.0,2.0,72,0.00,,,0.00,Weather View 32 v70,2013-10-21 01:26:00,
2013-10-20 17:31:00,46.2,37.7,30.05,West,270,0.0,2.0,72,0.00,,,0.00,Weather View 32 v70,2013-10-21 01:31:00,
2013-10-20 17:36:00,46.0,37.1,30.05,West,270,0.0,2.0,71,0.00,,,0.00,Weather View 32 v70,2013-10-21 01:36:00,
2013-10-20 17:41:00,45.9,37.3,30.05,WSW,248,0.0,2.0,72,0.00,,,0.00,Weather View 32 v70,2013-10-21 01:41:00,
2013-10-20 17:46:00,45.9,37.3,30.03,NNE,22,0.0,2.0,72,0.00,,,0.00,Weather View 32 v70,2013-10-21 01:46:00,
2013-10-20 17:51:00,46.2,37.0,30.03,SSE,158,0.0,1.0,70,0.00,,,0.00,Weather View 32 v70,2013-10-21 01:51:00,
2013-10-20 17:56:00,46.2,36.6,30.03,NNE,22,1.0,1.0,69,0.00,,,0.00,Weather View 32 v70,2013-10-21 01:56:00,
2013-10-20 18:01:00,45.9,37.0,30.03,ENE,68,0.0,1.0,71,0.00,,,0.00,Weather View 32 v70,2013-10-21 02:01:00,
2013-10-20 18:06:00,45.5,37.0,30.04,ENE,68,0.0,1.0,72,0.00,,,0.00,Weather View 32 v70,2013-10-21 02:06:00,
2013-10-20 18:11:00,45.5,37.3,30.04,ENE,68,0.0,1.0,73,0.00,,,0.00,Weather View 32 v70,2013-10-21 02:11:00,
2013-10-20 18:16:00,45.1,37.3,30.04,ENE,68,0.0,1.0,74,0.00,,,0.00,Weather View 32 v70,2013-10-21 02:16:00,
2013-10-20 18:21:00,45.0,37.2,30.04,ESE,112,0.0,1.0,74,0.00,,,0.00,Weather View 32 v70,2013-10-21 02:21:00,
2013-10-20 18:26:00,44.8,37.0,30.04,SE,135,0.0,1.0,74,0.00,,,0.00,Weather View 32 v70,2013-10-21 02:26:00,
2013-10-20 18:31:00,44.8,37.3,30.04,WSW,248,0.0,1.0,75,0.00,,,0.00,Weather View 32 v70,2013-10-21 02:31:00,
2013-10-20 18:36:00,44.4,37.0,30.04,ENE,68,0.0,1.0,75,0.00,,,0.00,Weather View 32 v70,2013-10-21 02:36:00,
2013-10-20 18:41:00,44.4,36.6,30.04,SSE,158,0.0,1.0,74,0.00,,,0.00,Weather View 32 v70,2013-10-21 02:41:00,
2013-10-20 18:46:00,44.2,36.5,30.01,SE,135,0.0,1.0,74,0.00,,,0.00,Weather View 32 v70,2013-10-21 02:46:00,
2013-10-20 18:51:00,44.4,36.3,30.01,ENE,68,1.0,1.0,73,0.00,,,0.00,Weather View 32 v70,2013-10-21 02:51:00,
2013-10-20 18:56:00,44.4,36.3,30.01,ESE,112,0.0,1.0,73,0.00,,,0.00,Weather View 32 v70,2013-10-21 02:56:00,
2013-10-20 19:01:00,44.1,36.6,30.01,SSE,158,0.0,1.0,75,0.00,,,0.00,Weather View 32 v70,2013-10-21 03:01:00,
2013-10-20 19:06:00,43.9,36.5,30.01,SE,135,0.0,1.0,75,0.00,,,0.00,Weather View 32 v70,2013-10-21 03:06:00,
2013-10-20 19:11:00,43.5,36.4,30.01,ENE,68,0.0,1.0,76,0.00,,,0.00,Weather View 32 v70,2013-10-21 03:11:00,
2013-10-20 19:16:00,43.3,36.6,30.01,SE,135,0.0,1.0,77,0.00,,,0.00,Weather View 32 v70,2013-10-21 03:16:00,
2013-10-20 19:21:00,43.0,36.3,30.01,NE,45,0.0,1.0,77,0.00,,,0.00,Weather View 32 v70,2013-10-21 03:21:00,
2013-10-20 19:26:00,43.0,36.6,30.02,SE,135,0.0,1.0,78,0.00,,,0.00,Weather View 32 v70,2013-10-21 03:26:00,